AFL263 URMM-URSS

Flight info

Callsign AFL263
Flight time 0h 45m
Altitude 28000
Route URMM ABELA B967 ERSAR G487 BINOL URSS
Aircraft B738/M-SDE2E3FGHIRWXY/LB1

Departure

Time 2026-05-01 12:11
Airport Mineralnye Vody Airport (URMM)

Arrival

Time 2026-05-01 12:57
Airport Sochi International Airport (URSS)
Time Latitude Longitude Altitude Speed Heading
2026-05-01 11:46 44.21878 43.08738 1050 ft 0 kts 212°
2026-05-01 11:47 44.21879 43.08740 1050 ft 2 kts 211°
2026-05-01 11:47 44.21894 43.08751 1051 ft 2 kts 212°
2026-05-01 11:48 44.21908 43.08763 1051 ft 2 kts 211°
2026-05-01 11:48 44.21921 43.08775 1052 ft 2 kts 223°
2026-05-01 11:48 44.21931 43.08794 1050 ft 2 kts 249°
2026-05-01 11:48 44.21934 43.08816 1053 ft 2 kts 272°
2026-05-01 11:49 44.21933 43.08832 1050 ft 1 kts 294°
2026-05-01 11:49 44.21932 43.08833 1050 ft 0 kts 296°
2026-05-01 12:00 44.21933 43.08833 1050 ft 0 kts 296°
2026-05-01 12:01 44.21934 43.08830 1050 ft 1 kts 301°
2026-05-01 12:01 44.21940 43.08816 1050 ft 2 kts 301°
2026-05-01 12:01 44.21951 43.08791 1050 ft 4 kts 301°
2026-05-01 12:01 44.21967 43.08755 1051 ft 5 kts 303°
2026-05-01 12:02 44.21989 43.08709 1050 ft 6 kts 303°
2026-05-01 12:02 44.22008 43.08650 1051 ft 7 kts 282°
2026-05-01 12:02 44.22025 43.08580 1050 ft 8 kts 299°
2026-05-01 12:02 44.22057 43.08508 1051 ft 9 kts 302°
2026-05-01 12:03 44.22092 43.08428 1050 ft 10 kts 302°
2026-05-01 12:03 44.22132 43.08341 1050 ft 11 kts 302°
2026-05-01 12:03 44.22174 43.08246 1050 ft 12 kts 302°
2026-05-01 12:03 44.22220 43.08144 1050 ft 13 kts 302°
2026-05-01 12:04 44.22267 43.08038 1050 ft 13 kts 302°
2026-05-01 12:04 44.22313 43.07935 1050 ft 12 kts 302°
2026-05-01 12:04 44.22359 43.07834 1050 ft 12 kts 302°
2026-05-01 12:04 44.22402 43.07737 1050 ft 12 kts 302°
2026-05-01 12:05 44.22446 43.07642 1050 ft 11 kts 302°
2026-05-01 12:05 44.22529 43.07459 1050 ft 11 kts 302°
2026-05-01 12:05 44.22568 43.07371 1050 ft 11 kts 302°
2026-05-01 12:06 44.22607 43.07286 1050 ft 10 kts 302°
2026-05-01 12:06 44.22645 43.07204 1050 ft 10 kts 303°
2026-05-01 12:06 44.22697 43.07147 1050 ft 10 kts 343°
2026-05-01 12:06 44.22762 43.07126 1050 ft 9 kts 347°
2026-05-01 12:07 44.22825 43.07105 1050 ft 9 kts 347°
2026-05-01 12:07 44.22886 43.07085 1050 ft 9 kts 347°
2026-05-01 12:07 44.22946 43.07066 1050 ft 9 kts 347°
2026-05-01 12:07 44.23004 43.07068 1050 ft 8 kts 25°
2026-05-01 12:08 44.23024 43.07139 1050 ft 8 kts 90°
2026-05-01 12:08 44.23022 43.07217 1050 ft 8 kts 92°
2026-05-01 12:08 44.23020 43.07292 1050 ft 8 kts 92°
2026-05-01 12:08 44.23018 43.07365 1051 ft 7 kts 92°
2026-05-01 12:09 44.23015 43.07435 1051 ft 7 kts 96°
2026-05-01 12:09 44.23007 43.07503 1051 ft 7 kts 101°
2026-05-01 12:09 44.22995 43.07568 1051 ft 7 kts 107°
2026-05-01 12:09 44.22980 43.07628 1050 ft 6 kts 110°
2026-05-01 12:10 44.22964 43.07674 1049 ft 5 kts 121°
2026-05-01 12:10 44.22934 43.07741 1050 ft 32 kts 122°
2026-05-01 12:10 44.22667 43.08327 1050 ft 109 kts 122°
2026-05-01 12:11 44.21507 43.10887 1905 ft 169 kts 122°
2026-05-01 12:11 44.20895 43.12143 3228 ft 147 kts 121°
2026-05-01 12:11 44.20322 43.13330 4039 ft 153 kts 120°
2026-05-01 12:12 44.19725 43.14677 4580 ft 177 kts 119°
2026-05-01 12:12 44.19034 43.16271 4844 ft 206 kts 120°
2026-05-01 12:12 44.18244 43.18052 5170 ft 227 kts 121°
2026-05-01 12:12 44.17375 43.19980 5667 ft 243 kts 122°
2026-05-01 12:13 44.16451 43.22013 6460 ft 252 kts 122°
2026-05-01 12:13 44.15639 43.24201 7253 ft 261 kts 106°
2026-05-01 12:13 44.15588 43.26780 7955 ft 276 kts 80°
2026-05-01 12:13 44.16364 43.29288 8704 ft 291 kts 56°
2026-05-01 12:14 44.17886 43.31211 9444 ft 302 kts 28°
2026-05-01 12:14 44.19886 43.32076 10288 ft 304 kts
2026-05-01 12:14 44.22028 43.31698 10648 ft 322 kts 336°
2026-05-01 12:14 44.23995 43.30060 10863 ft 340 kts 315°
2026-05-01 12:15 44.25461 43.27418 11260 ft 351 kts 297°
2026-05-01 12:15 44.26731 43.24472 12002 ft 356 kts 298°
2026-05-01 12:15 44.28093 43.21572 12909 ft 357 kts 300°
2026-05-01 12:15 44.29473 43.18681 13793 ft 357 kts 295°
2026-05-01 12:16 44.30255 43.15451 14538 ft 350 kts 273°
2026-05-01 12:16 44.30229 43.12104 15376 ft 343 kts 257°
2026-05-01 12:16 44.29623 43.08888 16242 ft 342 kts 251°
2026-05-01 12:16 44.28921 43.05747 17012 ft 344 kts 251°
2026-05-01 12:17 44.28216 43.02552 17779 ft 345 kts 251°
2026-05-01 12:17 44.27522 42.99331 18510 ft 347 kts 251°
2026-05-01 12:17 44.26832 42.96093 19123 ft 350 kts 252°
2026-05-01 12:17 44.26132 42.92808 19646 ft 355 kts 252°
2026-05-01 12:18 44.25425 42.89490 20175 ft 359 kts 252°
2026-05-01 12:18 44.24708 42.86128 20740 ft 362 kts 252°
2026-05-01 12:18 44.23994 42.82785 21276 ft 366 kts 252°
2026-05-01 12:18 44.23261 42.79355 21806 ft 370 kts 252°
2026-05-01 12:19 44.22521 42.75902 22338 ft 373 kts 252°
2026-05-01 12:19 44.21775 42.72425 22852 ft 376 kts 252°
2026-05-01 12:19 44.21019 42.68906 23356 ft 380 kts 252°
2026-05-01 12:19 44.20257 42.65363 23797 ft 383 kts 252°
2026-05-01 12:20 44.19486 42.61791 24236 ft 385 kts 252°
2026-05-01 12:20 44.18865 42.58150 24662 ft 389 kts 260°
2026-05-01 12:20 44.18600 42.54427 25104 ft 391 kts 263°
2026-05-01 12:20 44.18402 42.50643 25643 ft 390 kts 263°
2026-05-01 12:21 44.18217 42.46894 26264 ft 387 kts 263°
2026-05-01 12:21 44.18024 42.43162 26895 ft 384 kts 263°
2026-05-01 12:21 44.17819 42.39459 27454 ft 383 kts 263°
2026-05-01 12:21 44.17602 42.35743 27912 ft 384 kts 262°
2026-05-01 12:22 44.17377 42.32029 27964 ft 383 kts 262°
2026-05-01 12:22 44.17151 42.28382 27987 ft 382 kts 262°
2026-05-01 12:22 44.16919 42.24687 27999 ft 383 kts 262°
2026-05-01 12:22 44.16683 42.20982 27995 ft 384 kts 262°
2026-05-01 12:23 44.16446 42.17266 27983 ft 384 kts 262°
2026-05-01 12:23 44.16208 42.13556 27986 ft 384 kts 262°
2026-05-01 12:23 44.15968 42.09839 27985 ft 384 kts 262°
2026-05-01 12:23 44.15729 42.06134 27977 ft 384 kts 262°
2026-05-01 12:24 44.15487 42.02422 27984 ft 384 kts 262°
2026-05-01 12:24 44.15245 41.98721 27981 ft 384 kts 262°
2026-05-01 12:24 44.15004 41.95062 27981 ft 384 kts 262°
2026-05-01 12:24 44.14760 41.91357 27979 ft 383 kts 262°
2026-05-01 12:25 44.14515 41.87662 27981 ft 384 kts 262°
2026-05-01 12:25 44.14019 41.80249 27989 ft 384 kts 262°
2026-05-01 12:26 44.13517 41.72828 27987 ft 385 kts 261°
2026-05-01 12:26 44.13013 41.65428 27993 ft 384 kts 261°
2026-05-01 12:26 44.12760 41.61730 27977 ft 383 kts 261°
2026-05-01 12:27 44.12506 41.58034 27983 ft 383 kts 261°
2026-05-01 12:27 44.11986 41.50702 27979 ft 382 kts 259°
2026-05-01 12:28 44.10567 41.43642 27975 ft 377 kts 245°
2026-05-01 12:28 44.09527 41.40284 27975 ft 378 kts 245°
2026-05-01 12:28 44.07445 41.33565 27982 ft 379 kts 245°
2026-05-01 12:29 44.06420 41.30236 27981 ft 379 kts 245°
2026-05-01 12:29 44.05380 41.26855 27974 ft 380 kts 245°
2026-05-01 12:29 44.03305 41.20094 27970 ft 380 kts 245°
2026-05-01 12:30 44.01222 41.13316 27978 ft 381 kts 245°
2026-05-01 12:30 44.00180 41.09931 27965 ft 381 kts 245°
2026-05-01 12:30 43.99138 41.06550 27973 ft 381 kts 245°
2026-05-01 12:31 43.98106 41.03206 27949 ft 380 kts 245°
2026-05-01 12:31 43.97062 40.99829 27956 ft 379 kts 245°
2026-05-01 12:31 43.96022 40.96468 27974 ft 379 kts 245°
2026-05-01 12:31 43.94982 40.93112 27965 ft 378 kts 245°
2026-05-01 12:32 43.93945 40.89767 27953 ft 376 kts 245°
2026-05-01 12:32 43.91874 40.83104 27956 ft 375 kts 245°
2026-05-01 12:32 43.90840 40.79782 27957 ft 374 kts 245°
2026-05-01 12:33 43.89807 40.76469 27965 ft 374 kts 245°
2026-05-01 12:33 43.88784 40.73191 27951 ft 375 kts 245°
2026-05-01 12:33 43.87744 40.69870 27947 ft 371 kts 244°
2026-05-01 12:33 43.86722 40.66642 27923 ft 359 kts 244°
2026-05-01 12:34 43.85722 40.63503 27600 ft 351 kts 244°
2026-05-01 12:34 43.84737 40.60417 27171 ft 348 kts 244°
2026-05-01 12:34 43.83776 40.57412 26756 ft 344 kts 244°
2026-05-01 12:34 43.82810 40.54393 26321 ft 340 kts 244°
2026-05-01 12:35 43.81854 40.51407 25889 ft 337 kts 244°
2026-05-01 12:35 43.80908 40.48453 25478 ft 334 kts 244°
2026-05-01 12:35 43.79967 40.45518 25031 ft 333 kts 244°
2026-05-01 12:35 43.79032 40.42601 24622 ft 331 kts 244°
2026-05-01 12:36 43.78099 40.39698 24181 ft 328 kts 243°
2026-05-01 12:36 43.77175 40.36823 23770 ft 325 kts 244°
2026-05-01 12:36 43.76260 40.33977 23367 ft 323 kts 243°
2026-05-01 12:36 43.75356 40.31173 22900 ft 322 kts 243°
2026-05-01 12:37 43.74445 40.28347 22457 ft 319 kts 243°
2026-05-01 12:37 43.73544 40.25554 22068 ft 316 kts 243°
2026-05-01 12:37 43.72648 40.22779 21630 ft 315 kts 243°
2026-05-01 12:37 43.71761 40.20033 21249 ft 310 kts 243°
2026-05-01 12:38 43.70891 40.17348 20872 ft 308 kts 243°
2026-05-01 12:38 43.70012 40.14654 20445 ft 306 kts 241°
2026-05-01 12:38 43.68823 40.12240 20038 ft 303 kts 227°
2026-05-01 12:38 43.67289 40.10251 19711 ft 301 kts 219°
2026-05-01 12:39 43.65492 40.08732 19391 ft 306 kts 208°
2026-05-01 12:39 43.63545 40.07515 19073 ft 313 kts 206°
2026-05-01 12:39 43.61519 40.06261 18711 ft 316 kts 207°
2026-05-01 12:39 43.59537 40.05022 18371 ft 315 kts 207°
2026-05-01 12:40 43.57549 40.03777 18018 ft 313 kts 207°
2026-05-01 12:40 43.55572 40.02541 17636 ft 311 kts 207°
2026-05-01 12:40 43.53603 40.01309 17298 ft 310 kts 207°
2026-05-01 12:40 43.52301 40.00496 17055 ft 309 kts 207°
2026-05-01 12:41 43.50355 39.99278 16734 ft 307 kts 207°
2026-05-01 12:41 43.48412 39.98064 16390 ft 305 kts 206°
2026-05-01 12:41 43.46485 39.96862 16071 ft 303 kts 206°
2026-05-01 12:41 43.44541 39.95742 15681 ft 304 kts 202°
2026-05-01 12:42 43.42527 39.94783 15255 ft 307 kts 201°
2026-05-01 12:42 43.40494 39.93872 14829 ft 308 kts 200°
2026-05-01 12:42 43.38441 39.92962 14396 ft 310 kts 200°
2026-05-01 12:42 43.36385 39.92046 13979 ft 309 kts 200°
2026-05-01 12:43 43.34346 39.91132 13532 ft 307 kts 200°
2026-05-01 12:43 43.32344 39.90231 13060 ft 306 kts 200°
2026-05-01 12:43 43.30331 39.89321 12612 ft 304 kts 200°
2026-05-01 12:43 43.28326 39.88413 12176 ft 302 kts 200°
2026-05-01 12:44 43.26333 39.87510 11750 ft 300 kts 200°
2026-05-01 12:44 43.24352 39.86612 11327 ft 297 kts 200°
2026-05-01 12:44 43.20576 39.84903 10506 ft 278 kts 200°
2026-05-01 12:45 43.17009 39.83288 9937 ft 255 kts 199°
2026-05-01 12:45 43.15298 39.82514 9419 ft 260 kts 199°
2026-05-01 12:45 43.13575 39.81734 8988 ft 263 kts 199°
2026-05-01 12:46 43.11835 39.80947 8600 ft 263 kts 200°
2026-05-01 12:46 43.10093 39.80160 8221 ft 264 kts 200°
2026-05-01 12:46 43.08361 39.79378 7851 ft 265 kts 200°
2026-05-01 12:46 43.06600 39.78584 7468 ft 266 kts 200°
2026-05-01 12:47 43.04840 39.77791 7091 ft 267 kts 200°
2026-05-01 12:47 43.03181 39.76719 6783 ft 261 kts 221°
2026-05-01 12:47 43.02122 39.74749 6561 ft 257 kts 244°
2026-05-01 12:47 43.01636 39.72419 6323 ft 256 kts 262°
2026-05-01 12:48 43.01750 39.69995 6064 ft 257 kts 281°
2026-05-01 12:48 43.02480 39.67788 5798 ft 260 kts 301°
2026-05-01 12:48 43.03780 39.66063 5546 ft 265 kts 324°
2026-05-01 12:48 43.05500 39.65132 5291 ft 269 kts 347°
2026-05-01 12:49 43.07381 39.65156 5042 ft 272 kts
2026-05-01 12:49 43.09147 39.66093 4796 ft 274 kts 30°
2026-05-01 12:49 43.10757 39.67485 4556 ft 273 kts 32°
2026-05-01 12:49 43.12345 39.68923 4299 ft 273 kts 33°
2026-05-01 12:50 43.13921 39.70357 4044 ft 272 kts 33°
2026-05-01 12:50 43.15480 39.71771 3788 ft 271 kts 32°
2026-05-01 12:50 43.17070 39.73207 3526 ft 269 kts 34°
2026-05-01 12:50 43.18603 39.74589 3282 ft 266 kts 34°
2026-05-01 12:51 43.20141 39.75974 3025 ft 263 kts 34°
2026-05-01 12:51 43.21665 39.77344 2763 ft 260 kts 34°
2026-05-01 12:51 43.24556 39.79943 2550 ft 233 kts 33°
2026-05-01 12:52 43.25868 39.81124 2448 ft 218 kts 32°
2026-05-01 12:52 43.28325 39.83105 2203 ft 193 kts 26°
2026-05-01 12:52 43.29479 39.83961 2053 ft 183 kts 25°
2026-05-01 12:53 43.31533 39.85508 2021 ft 163 kts 25°
2026-05-01 12:53 43.32493 39.86230 2002 ft 154 kts 25°
2026-05-01 12:53 43.33421 39.86928 2010 ft 151 kts 24°
2026-05-01 12:54 43.34344 39.87621 1976 ft 153 kts 27°
2026-05-01 12:54 43.36255 39.89060 1603 ft 156 kts 27°
2026-05-01 12:54 43.37195 39.89768 1406 ft 152 kts 27°
2026-05-01 12:55 43.39057 39.91169 1039 ft 153 kts 26°
2026-05-01 12:55 43.39980 39.91863 843 ft 153 kts 25°
2026-05-01 12:55 43.40908 39.92561 652 ft 152 kts 26°
2026-05-01 12:56 43.41831 39.93256 468 ft 152 kts 26°
2026-05-01 12:56 43.42761 39.93954 272 ft 150 kts 27°
2026-05-01 12:56 43.43678 39.94633 73 ft 146 kts 28°
2026-05-01 12:56 43.44491 39.95248 80 ft 110 kts 28°
2026-05-01 12:57 43.44873 39.95541 89 ft 22 kts 29°
2026-05-01 12:57 43.44998 39.95551 89 ft 7 kts 335°
2026-05-01 12:57 43.45041 39.95523 90 ft 7 kts 335°
2026-05-01 12:58 43.45077 39.95484 91 ft 7 kts 309°
2026-05-01 12:58 43.45095 39.95425 92 ft 7 kts 286°
2026-05-01 12:58 43.45093 39.95355 90 ft 8 kts 249°
2026-05-01 12:59 43.45033 39.95181 85 ft 12 kts 245°
2026-05-01 12:59 43.44995 39.95085 82 ft 10 kts 227°
2026-05-01 12:59 43.44915 39.94895 76 ft 13 kts 244°
2026-05-01 13:00 43.44833 39.94658 68 ft 10 kts 244°
2026-05-01 13:00 43.44805 39.94577 69 ft 7 kts 244°
2026-05-01 13:01 43.44764 39.94458 70 ft 5 kts 246°
2026-05-01 13:01 43.44767 39.94411 67 ft 5 kts 307°
2026-05-01 13:01 43.44807 39.94378 70 ft 1 kts 334°
2026-05-01 13:02 43.44811 39.94375 70 ft 0 kts 334°